Home   Weather   Woodbridge Crossing   Past weeks
Flag for USA

Past Weather in Woodbridge Crossing, Arizona, USA — Yesterday and Last 2 Weeks

Now
83 °F

Sunny.


Feels Like: 80 °F
Forecast: 89 / 57 °F
Wind: 10 mph from Northeast

Location: Mesa / Falcon Field

Current Time: Oct 22, 2019 at 12:09:46 pm

Latest Report: Oct 22, 2019 at 10:54 am


Visibility: 10 mi

Pressure: 30.04 "Hg

Humidity: 11%

Dew Point: 24 °F

Location of Woodbridge CrossingLocation

Past Weather in Woodbridge Crossing — Graph

°F

Woodbridge Crossing Temperature Yesterday

Maximum temperature yesterday: 84 °F (at 3:54 pm)
Minimum temperature yesterday: 62 °F (at 5:54 am)
Average temperature yesterday: 72 °F

High & Low Weather Summary for the Past Weeks

 TemperatureHumidityPressure
High96 °F (Oct 7, 2:54 pm)47% (Oct 18, 6:54 am)30.07 "Hg (Oct 18, 6:54 am)
Low57 °F (Oct 20, 6:54 am)6% (Oct 11, 9:54 am)29.55 "Hg (Oct 17, 5:54 pm)
Average77 °F23%29.80 "Hg
* Reported Oct 7 9:54 am — Oct 22 9:54 am, Woodbridge Crossing. Weather by CustomWeather, © 2019

Note: Actual official high and low records may vary slightly from our data, if they occured in-between our weather recording intervals... More about our weather records

Advertising

Woodbridge Crossing Weather History for the Previous 24 Hours

Scroll right to see more
 ConditionsComfort  
Time TempWeatherWind HumidityBarometerVisibility
9:54 am
Tue, Oct 22
78 °FSunny.8 mph15%30.06 "Hg10 mi
8:54 am74 °FSunny.12 mph15%30.07 "Hg10 mi
7:54 am69 °FSunny.8 mph21%30.05 "Hg10 mi
6:54 am66 °FSunny.9 mph20%30.05 "Hg10 mi
5:54 am66 °FClear.6 mph23%30.03 "Hg10 mi
4:54 am67 °FClear.6 mph20%30.02 "Hg10 mi
3:54 am67 °FClear.7 mph20%30.00 "Hg10 mi
2:54 am67 °FClear.7 mph21%30.01 "Hg10 mi
1:54 am66 °FClear.6 mph25%30.01 "Hg10 mi
12:54 am65 °FClear.3 mph28%30.01 "Hg10 mi
11:54 pm
Mon, Oct 21
68 °FClear.5 mph22%30.00 "Hg10 mi
10:54 pm67 °FClear.3 mph25%29.99 "Hg10 mi
9:54 pm68 °FClear.5 mph23%29.98 "Hg10 mi
8:54 pm70 °FClear.3 mph26%29.97 "Hg10 mi
7:54 pm71 °FClear.3 mph24%29.97 "Hg10 mi
6:54 pm76 °FClear.No wind19%29.95 "Hg10 mi
5:54 pm80 °FClear.3 mph14%29.92 "Hg10 mi
4:54 pm83 °FSunny.6 mph11%29.92 "Hg10 mi
3:54 pm84 °FSunny.9 mph10%29.91 "Hg10 mi
2:54 pm83 °FSunny.7 mph10%29.91 "Hg10 mi
1:54 pm81 °FSunny.5 mph11%29.92 "Hg10 mi
12:54 pm80 °FSunny.7 mph10%29.96 "Hg10 mi
Weather by CustomWeather, © 2019

See weather overview